Regional Weather Roundup
Issued by NWS Raleigh/Durham, NC

Home | Current Version | Previous Version | Text Only | Print | Product List | Glossary On
Versions: 1 2 3 4 5 6 7 8 9 10 11 12 13 14 15 16 17 18 19 20 21 22 23 24 25 26 27 28 29 30 31 32 33 34 35 36 37 38 39 40 41 42 43 44 45 46 47 48 49 50
231
ASUS42 KRAH 232210
RWRRAH
NORTH CAROLINA WEATHER ROUNDUP
NATIONAL WEATHER SERVICE RALEIGH NC
500 PM EST TUE JAN 23 2018

NOTE: "FAIR" INDICATES FEW OR NO CLOUDS BELOW 12,000 FEET WITH NO
SIGNIFICANT WEATHER AND/OR OBSTRUCTIONS TO VISIBILITY.

NCZ001-053-055-056-065-067-232300-
WESTERN NORTH CAROLINA

CITY           SKY/WX    TMP DP  RH WIND       PRES   REMARKS
ASHEVILLE      FAIR      49  27  42 N16G28    29.89R
JEFFERSON      FAIR      40  25  53 W24G32    29.84R WCI  30
MORGANTON      FAIR      56  26  31 NW13      29.90R
HICKORY        FAIR      56  25  30 NW12      29.85R
RUTHERFORDTON  FAIR      58  28  31 NW7G20    29.87R
MOUNT AIRY     FAIR      55  23  28 NW10G16   29.86R
BOONE          FAIR      40  24  52 W18G32    29.86R WCI  31
$$

NCZ021-022-025-041-071-084-088-232300-
CENTRAL NORTH CAROLINA

CITY           SKY/WX    TMP DP  RH WIND       PRES   REMARKS
CHARLOTTE      FAIR      59  31  34 SW13G23   29.84R
GREENSBORO     FAIR      59  28  30 NW20G28   29.79R
WINSTON-SALEM  FAIR      59  23  25 W13G21    29.82R
RALEIGH-DURHAM FAIR      64  29  26 SW12      29.76R
FORT BRAGG     FAIR      66  28  24 W17G24    29.78R
FAYETTEVILLE   FAIR      67  35  30 W20G30    29.79R
BURLINGTON     FAIR      64  32  30 W12G20    29.77R
LAURINBURG     FAIR      65  27  23 W16G26    29.82R
$$

NCZ011-015-027-028-043-044-047-080-103-232300-
NORTHEASTERN NORTH CAROLINA

CITY           SKY/WX    TMP DP  RH WIND       PRES   REMARKS
ROCKY MT-WILSO FAIR      66  35  31 SW14G22   29.74R
GREENVILLE     FAIR      70  41  35 W13G18    29.77R
WASHINGTON     FAIR      71  52  50 W12       29.73R
ELIZABETH CITY FAIR      69  65  86 SW12      29.69R
MANTEO         FAIR      52  51  95 SW14      29.72R
CAPE HATTERAS  NOT AVBL
$$

NCZ078-087-090-091-093-098-101-232300-
SOUTHEASTERN NORTH CAROLINA

CITY           SKY/WX    TMP DP  RH WIND       PRES   REMARKS
LUMBERTON      FAIR      69  30  23 W17G30    29.80R
GOLDSBORO      FAIR      69  44  39 SW17      29.74R
KINSTON        CLEAR     72  43  35 SW13G21   29.76R
KENANSVILLE    FAIR      70  46  43 W14G22    29.77R
NEW BERN       FAIR      71  54  54 SW14G22   29.75R
CHERRY POINT   PTCLDY    63  59  87 SW15G24   29.77R
BEAUFORT       FOG       55  55 100 SW18G29   29.78S VSB 1/2
JACKSONVILLE   FAIR      67  60  78 S12       29.76R
WILMINGTON     FAIR      64  58  80 S14       29.80R
$$





USA.gov is the U.S. government's official web portal to all federal, state and local government web resources and services.